sat.trackr.live / text

‹ back to catalog

STARLINK-2232

NORAD 48578 · 2021-041AB

PAYLOAD ACTIVE UNKNOWN

§ Identity

Operator
Country
US
Launch date
2021-05-15
Launch site
AFETR
Launch vehicle
Mass (kg)
RCS (m²)

Purposes: comms

External: N2YO · Heavens-Above · Gunter

§ Orbital elements

Epoch: 2026-05-25T04:18:08.425152Z

Period
94.01 min
Inclination
53.1568°
Eccentricity
0.0001254
Mean motion
15.31699076 rev/d
Perigee alt
469.9 km
Apogee alt
471.6 km
Semi-major
6,848.9 km
B*
2.5188e-4
RAAN
130.9859°
Arg perigee
92.2330°
Mean anomaly
267.8815°
Rev number
27,699

§ Raw data

STARLINK-22321 48578U 21041AB  26145.17926418  .00007459  00000+0  25188-3 0  99972 48578  53.1568 130.9859 0001254  92.2330 267.8815 15.31699076276995

JSON: /api/v1/satellites/48578 · /tle

For live sub-satellite position, see the globe view (requires WebGL).

§ Visibility from observer

Set your observer location to see the next 7 days of passes ≥ 10°. The values pass through the URL so the page stays shareable.

No JS? Fill the form by hand. The geolocation button needs JavaScript.